Location: Splawn
(30.9202°N, 96.9858°W)
Time: 12:47:59
(UTC+00:00)

Transit 2A Rocket - Pass Details

Date: 29 February 2020
Orbit: 588 x 915 km, 66.7° (Epoch: 05 April)

Event Time Altitude Azimuth Distance (km) Brightness Sun altitude
Rises 13:28:22 0° 319° (NW) 3,280 7.8 6.2°
Reaches altitude 10° 13:31:03 10° 307° (NW) 2,401 7.0 6.8°
Maximum altitude 13:35:37 27° 252° (WSW) 1,597 6.3 7.7°
Drops below altitude 10° 13:40:26 10° 197° (SSW) 2,537 7.7 8.7°
Sets 13:43:22 0° 185° (S) 3,502 8.5 9.3°
